Manchester, United Kingdom

1:08 PM BST on June 22, 2017 (GMT +0100)
Manchester

Weather History for EGCC - July, 2013

Change the Weather History Date:

Sunday, July 7, 2013

  Actual Average Record
Temperature  
Mean Temperature 64 °F -  
Max Temperature 78 °F 67 °F 78 °F (2013)
Min Temperature 51 °F 54 °F 44 °F (1996)
Growing Degree Days 14 (Base 50)    
Moisture  
Dew Point 56 °F    
Average Humidity 72    
Maximum Humidity 94    
Minimum Humidity 54    
Precipitation  
Precipitation 0.00 in 0.09 in - ()
Sea Level Pressure  
Sea Level Pressure 30.52 in    
Wind  
Wind Speed 4 mph ()    
Max Wind Speed 10 mph    
Max Gust Speed 22 mph    
Visibility 6.2 miles    
Events      
Averages and records for this station are not official NWS values.
T = Trace of Precipitation, MM = Missing Value Source: Averaged Metar Reports

Daily Weather History Graph

Daily Weather History Graph

Search for Another Location

Airport or City:

Trip Planner

Search our weather history database for the weather conditions in past years. The results will help you decide how hot, cold, wet, or windy it might be!

Date:

Astronomy

Jul. 07, 2013 Rise Set
Actual Time 4:50 AM BST 9:36 PM BST
Civil Twilight 4:00 AM BST 10:27 PM BST
Nautical Twilight 2:36 AM BST 11:49 PM BST
Astronomical Twilight Sun does not set Sun does not set
Moon 4:24 AM BST (7/7) 8:38 PM BST (7/7)
Length of Visible Light 18h 26m
Length of Day
16h 45m
Waning Crescent, 1% of the Moon is Illuminated
Jul 7
Waning Crescent
Jul 8
New
Jul 16
First Quarter
Jul 22
Full
Jul 29
Last Quarter

Hourly Weather History & Observations

Time (BST) Temp. Dew Point Humidity Pressure Visibility Wind Dir Wind Speed Gust Speed Precip Events Conditions
12:20 AM 57.2 °F 51.8 °F 82% 30.48 in - WNW 3.5 mph - N/A   Clear
12:50 AM 55.4 °F 51.8 °F 88% 30.48 in - West 3.5 mph - N/A   Clear
1:20 AM 55.4 °F 51.8 °F 88% 30.48 in - Variable 3.5 mph - N/A   Clear
1:50 AM 53.6 °F 50.0 °F 88% 30.48 in - Variable 2.3 mph - N/A   Clear
2:20 AM 53.6 °F 50.0 °F 88% 30.48 in - Variable 2.3 mph - N/A   Clear
2:50 AM 53.6 °F 51.8 °F 94% 30.48 in - Calm Calm - N/A   Clear
3:20 AM 53.6 °F 50.0 °F 88% 30.48 in 6.2 mi Calm Calm - N/A   Unknown
3:50 AM 51.8 °F 50.0 °F 94% 30.48 in 6.2 mi Calm Calm - N/A   Unknown
4:20 AM 51.8 °F 50.0 °F 94% 30.48 in 5.6 mi Calm Calm - N/A   Unknown
4:50 AM 51.8 °F 50.0 °F 94% 30.48 in 6.2 mi Calm Calm - N/A   Partly Cloudy
5:20 AM 51.8 °F 50.0 °F 94% 30.48 in 6.2 mi Calm Calm - N/A   Partly Cloudy
5:50 AM 53.6 °F 50.0 °F 88% 30.51 in - Variable 2.3 mph - N/A   Clear
6:20 AM 55.4 °F 51.8 °F 88% 30.51 in - Variable 3.5 mph - N/A   Clear
6:50 AM 57.2 °F 51.8 °F 82% 30.51 in 6.2 mi Variable 2.3 mph - N/A   Unknown
7:20 AM 59.0 °F 51.8 °F 77% 30.51 in - Variable 2.3 mph - N/A   Clear
7:50 AM 60.8 °F 53.6 °F 77% 30.54 in 6.2 mi Variable 3.5 mph - N/A   Unknown
8:20 AM 62.6 °F 53.6 °F 72% 30.54 in - Variable 3.5 mph - N/A   Clear
8:50 AM 64.4 °F 53.6 °F 68% 30.54 in - NW 4.6 mph - N/A   Clear
9:20 AM 66.2 °F 53.6 °F 64% 30.54 in 6.2 mi Variable 6.9 mph - N/A   Unknown
9:50 AM 68.0 °F 53.6 °F 60% 30.54 in 6.2 mi NNW 6.9 mph 19.6 mph N/A   Unknown
10:20 AM 69.8 °F 55.4 °F 60% 30.54 in 6.2 mi Variable 4.6 mph 20.7 mph N/A   Unknown
10:50 AM 69.8 °F 55.4 °F 60% 30.54 in 6.2 mi Variable 5.8 mph - N/A   Unknown
11:20 AM 71.6 °F 57.2 °F 60% 30.54 in 6.2 mi NNW 5.8 mph - N/A   Unknown
11:50 AM 73.4 °F 57.2 °F 57% 30.54 in 6.2 mi North 6.9 mph - N/A   Unknown
12:20 PM 75.2 °F 59.0 °F 57% 30.54 in - North 5.8 mph - N/A   Clear
12:50 PM 75.2 °F 59.0 °F 57% 30.54 in 6.2 mi NNW 6.9 mph - N/A   Unknown
1:20 PM 77.0 °F 59.0 °F 54% 30.54 in 6.2 mi Variable 4.6 mph - N/A   Unknown
1:50 PM 77.0 °F 60.8 °F 57% 30.51 in 6.2 mi Variable 8.1 mph - N/A   Partly Cloudy
2:20 PM 77.0 °F 60.8 °F 57% 30.51 in 6.2 mi WNW 9.2 mph - N/A   Partly Cloudy
2:50 PM 78.8 °F 60.8 °F 54% 30.51 in 6.2 mi NW 8.1 mph 21.9 mph N/A   Partly Cloudy
3:20 PM 78.8 °F 60.8 °F 54% 30.51 in 6.2 mi NW 9.2 mph - N/A   Partly Cloudy
3:50 PM 78.8 °F 62.6 °F 57% 30.51 in 6.2 mi Variable 9.2 mph - N/A   Partly Cloudy
4:20 PM 77.0 °F 60.8 °F 57% 30.51 in 6.2 mi NW 10.4 mph - N/A   Partly Cloudy
4:50 PM 77.0 °F 60.8 °F 57% 30.51 in - WNW 9.2 mph - N/A   Clear
5:20 PM 77.0 °F 60.8 °F 57% 30.51 in - WNW 10.4 mph - N/A   Clear
5:50 PM 77.0 °F 62.6 °F 61% 30.51 in - WNW 10.4 mph - N/A   Clear
6:20 PM 75.2 °F 60.8 °F 61% 30.51 in - WNW 10.4 mph - N/A   Clear
6:50 PM 75.2 °F 62.6 °F 65% 30.51 in - WNW 10.4 mph - N/A   Clear
7:20 PM 73.4 °F 60.8 °F 65% 30.51 in - WNW 10.4 mph - N/A   Clear
7:50 PM 73.4 °F 60.8 °F 65% 30.51 in - WNW 9.2 mph - N/A   Clear
8:20 PM 71.6 °F 60.8 °F 69% 30.54 in - WNW 8.1 mph - N/A   Clear
8:50 PM 69.8 °F 59.0 °F 68% 30.54 in - WNW 6.9 mph - N/A   Clear
9:20 PM 69.8 °F 59.0 °F 68% 30.54 in - WNW 5.8 mph - N/A   Clear
9:50 PM 68.0 °F 59.0 °F 73% 30.54 in 6.2 mi Variable 6.9 mph - N/A   Partly Cloudy
10:20 PM 66.2 °F 59.0 °F 78% 30.54 in - WNW 5.8 mph - N/A   Clear
10:50 PM 64.4 °F 57.2 °F 77% 30.57 in - Variable 3.5 mph - N/A   Clear
11:20 PM 62.6 °F 57.2 °F 82% 30.57 in - Variable 2.3 mph - N/A   Clear
11:50 PM 62.6 °F 57.2 °F 82% 30.57 in - Variable 2.3 mph - N/A   Clear